Location: �clusier
(49.9361°N, 2.7869°E)
Time: 15:17:20
(UTC+00:00)

NOAA 13 - Pass Details

Date: 31 January 2022
Orbit: 842 x 857 km, 98.5° (Epoch: 17 May)

Event Time Altitude Azimuth Distance (km) Brightness Sun altitude
Rises 05:12:23 0° 12° (NNE) 3,427 8.0 -21.2°
Reaches altitude 10° 05:14:46 10° 10° (N) 2,489 7.2 -20.8°
Maximum altitude 05:20:14 65° 290° (WNW) 941 4.6 -19.9°
Drops below altitude 10° 05:25:41 10° 210° (SSW) 2,482 6.9 -19.0°
Sets 05:28:03 0° 207° (SSW) 3,416 7.6 -18.7°
